カタログに戻る

STARLINK-36648

運用中通信VLEO
NORAD 67825·PAYLOAD·🇺🇸 United States

打ち上げ Feb 16, 2026 から Vandenberg Space Force Base

Loading…

次のパス (今後24時間)

TLE

最新Source: CelesTrak SupGP

元期: Sep 14, 2026, 22:43 UTC

1 67825C 26033E   26257.94701389  .00035629  00000+0  12905-2 0  2575
2 67825  42.9994 277.8518 0001438 264.7481  60.6390 15.27559590    16

AllMySatでSTARLINK-36648をリアルタイム追跡

Download on the App Store